TimeCDT,TemperatureF,Dew PointF,Humidity,Sea Level PressureIn,VisibilityMPH,Wind Direction,Wind SpeedMPH,Gust SpeedMPH,PrecipitationIn,Events,Conditions,WindDirDegrees,DateUTC
12:11 AM,78.8,77.0,94,29.94,10.0,Calm,Calm,-,N/A,,Mostly Cloudy,0,2013-09-02 05:11:00
12:31 AM,78.8,77.0,94,29.93,10.0,SSW,4.6,-,N/A,,Scattered Clouds,210,2013-09-02 05:31:00
12:38 AM,80.6,77.0,89,29.93,10.0,SSW,6.9,-,N/A,,Mostly Cloudy,210,2013-09-02 05:38:00
12:52 AM,80.6,77.0,89,29.93,10.0,SSW,9.2,-,N/A,,Scattered Clouds,210,2013-09-02 05:52:00
12:56 AM,81.0,77.0,88,29.94,10.0,SSW,10.4,-,N/A,,Scattered Clouds,210,2013-09-02 05:56:00
1:56 AM,80.1,75.9,87,29.94,10.0,SW,10.4,-,N/A,,Clear,220,2013-09-02 06:56:00
2:56 AM,80.1,75.9,87,29.93,10.0,WSW,4.6,-,N/A,,Clear,250,2013-09-02 07:56:00
3:56 AM,80.1,75.9,87,29.92,10.0,WSW,3.5,-,N/A,,Clear,240,2013-09-02 08:56:00
4:56 AM,79.0,75.9,90,29.92,10.0,West,3.5,-,N/A,,Clear,260,2013-09-02 09:56:00
5:56 AM,78.1,75.9,93,29.93,10.0,WSW,3.5,-,N/A,,Clear,240,2013-09-02 10:56:00
6:56 AM,79.0,77.0,94,29.94,10.0,Calm,Calm,-,N/A,,Clear,0,2013-09-02 11:56:00
7:56 AM,82.0,78.1,88,29.96,10.0,Calm,Calm,-,N/A,,Clear,0,2013-09-02 12:56:00
8:56 AM,84.0,77.0,79,29.98,10.0,West,4.6,-,N/A,,Scattered Clouds,280,2013-09-02 13:56:00
9:13 AM,82.4,77.0,84,29.97,10.0,WSW,4.6,-,N/A,,Mostly Cloudy,250,2013-09-02 14:13:00
9:23 AM,82.4,77.0,84,29.97,10.0,WSW,3.5,-,N/A,,Scattered Clouds,240,2013-09-02 14:23:00
9:35 AM,82.4,77.0,84,29.98,10.0,Calm,Calm,-,N/A,Thunderstorm,Thunderstorm,0,2013-09-02 14:35:00
9:56 AM,82.9,78.1,85,29.99,10.0,Variable,6.9,-,N/A,Thunderstorm,Thunderstorm,0,2013-09-02 14:56:00
10:09 AM,78.8,71.6,78,29.99,1.5,West,13.8,18.4,0.15,Rain-Thunderstorm,Light Thunderstorms and Rain,270,2013-09-02 15:09:00
10:16 AM,75.2,71.6,89,30.00,0.5,ENE,10.4,18.4,0.36,Rain-Thunderstorm,Heavy Thunderstorms and Rain,70,2013-09-02 15:16:00
10:21 AM,75.2,71.6,89,30.00,1.0,NNE,6.9,-,0.38,Rain-Thunderstorm,Heavy Thunderstorms and Rain,30,2013-09-02 15:21:00
10:31 AM,75.2,73.4,94,30.00,3.0,Calm,Calm,-,0.40,Rain-Thunderstorm,Thunderstorms and Rain,0,2013-09-02 15:31:00
10:56 AM,77.0,73.0,88,30.01,10.0,Calm,Calm,-,0.40,,Scattered Clouds,0,2013-09-02 15:56:00
11:56 AM,82.9,78.1,85,29.99,10.0,WSW,4.6,-,N/A,,Clear,240,2013-09-02 16:56:00
12:56 PM,87.1,75.9,69,29.96,10.0,West,6.9,-,N/A,,Clear,270,2013-09-02 17:56:00
1:56 PM,89.1,75.0,63,29.94,10.0,SW,9.2,-,N/A,,Clear,220,2013-09-02 18:56:00
2:56 PM,87.1,77.0,72,29.91,10.0,SSW,16.1,-,N/A,,Partly Cloudy,210,2013-09-02 19:56:00
3:56 PM,87.1,77.0,72,29.91,10.0,SSW,13.8,-,N/A,,Partly Cloudy,210,2013-09-02 20:56:00
4:05 PM,87.8,75.2,66,29.90,10.0,SW,15.0,-,N/A,Thunderstorm,Thunderstorm,220,2013-09-02 21:05:00
4:56 PM,79.0,71.1,77,29.94,10.0,North,19.6,29.9,N/A,Thunderstorm,Thunderstorm,10,2013-09-02 21:56:00
5:03 PM,77.0,71.6,83,29.94,-9999.0,North,17.3,29.9,0.00,Rain-Thunderstorm,Light Thunderstorms and Rain,10,2013-09-02 22:03:00
5:10 PM,73.4,71.6,94,29.94,8.0,NNE,27.6,33.4,0.01,Rain-Thunderstorm,Light Thunderstorms and Rain,20,2013-09-02 22:10:00
5:13 PM,73.4,71.6,94,29.94,1.5,NNE,25.3,33.4,0.16,Rain-Thunderstorm,Heavy Thunderstorms and Rain,20,2013-09-02 22:13:00
5:21 PM,73.4,71.6,94,29.95,0.5,NNE,16.1,32.2,0.27,Fog-Rain-Thunderstorm,Heavy Thunderstorms and Rain,30,2013-09-02 22:21:00
5:28 PM,71.6,71.6,100,29.94,1.2,NNE,12.7,-,0.37,Rain-Thunderstorm,Heavy Thunderstorms and Rain,30,2013-09-02 22:28:00
5:53 PM,73.4,71.6,94,29.91,3.0,ESE,8.1,-,0.66,Rain-Thunderstorm,Thunderstorms and Rain,110,2013-09-02 22:53:00
5:56 PM,73.0,71.1,93,29.91,5.0,ESE,4.6,-,0.66,Rain-Thunderstorm,Light Thunderstorms and Rain,110,2013-09-02 22:56:00
6:40 PM,73.4,71.6,94,29.91,10.0,SW,3.5,-,0.00,,Clear,220,2013-09-02 23:40:00
6:56 PM,73.9,72.0,93,29.92,10.0,Calm,Calm,-,0.00,,Clear,0,2013-09-02 23:56:00
7:56 PM,75.0,73.0,94,29.92,10.0,Calm,Calm,-,0.00,Rain,Light Rain,0,2013-09-03 00:56:00
8:56 PM,73.9,73.0,97,29.93,9.0,Calm,Calm,-,0.00,,Clear,0,2013-09-03 01:56:00
9:56 PM,73.9,73.9,100,29.94,9.0,Calm,Calm,-,0.00,,Clear,0,2013-09-03 02:56:00
10:56 PM,73.9,73.0,97,29.94,8.0,Calm,Calm,-,N/A,,Clear,0,2013-09-03 03:56:00
11:56 PM,73.9,73.9,100,29.94,10.0,Calm,Calm,-,N/A,,Partly Cloudy,0,2013-09-03 04:56:00